EW3244 Linkoping SE current weather conditions

sailwx.info

Wind from 267 at 13 knots gusting 29

Air temperature 7.2° C
Dewpoint 5.4° C

Last reported at 2020-Jan-21 05:00 UTC.
Time now 2020-Jan-21 06:04 UTC

Location: N 58°20' E 015°34'.
View on Google Maps.

See reports from other nearby stations

  
Tides and Currents Weather Stations Pressure Air Temp Water Temp Dewpoint Dewpoint Depression Visibility Wind Speed Wind Dir Waves Ship Positions
date/time (UTC)wind fromknots sea level pressurealtimeterstation pressurevisibilityair tempwater tempwave heightnotes
2020-Jan-21 05:00 267 13 gusting 29 7.2
2020-Jan-21 04:45 269 12 gusting 21 7.2
2020-Jan-21 04:31 248 14 gusting 25 7.2
2020-Jan-21 04:15 259 12 gusting 26 7.2
2020-Jan-21 04:00 274 13 gusting 25 7.2
2020-Jan-21 03:45 237 13 gusting 23 7.2
2020-Jan-21 03:30 277 11 gusting 21 7.2
2020-Jan-21 03:15 264 11 gusting 18 6.7
2020-Jan-21 03:00 233 9 gusting 19 7.2
2020-Jan-21 02:45 264 12 gusting 24 7.2
2020-Jan-21 02:17 257 11 gusting 17 7.2
2020-Jan-21 02:02 247 10 gusting 18 7.2
2020-Jan-21 01:46 258 12 gusting 18 7.2
2020-Jan-21 01:32 261 13 gusting 19 7.2
2020-Jan-21 01:17 250 10 gusting 18 7.2
2020-Jan-21 01:02 251 11 gusting 19 7.2
2020-Jan-21 00:47 238 9 gusting 21 7.2
2020-Jan-21 00:32 266 7 gusting 17 6.7
2020-Jan-21 00:16 286 7 gusting 13 7.2
2020-Jan-21 00:02 258 7 gusting 13 7.2
2020-Jan-20 23:46 271 8 gusting 14 7.2
2020-Jan-20 23:31 265 6 gusting 15 7.2
2020-Jan-20 23:17 245 12 gusting 19 7.2
2020-Jan-20 23:00 282 9 gusting 18 7.2
2020-Jan-20 22:45 254 11 gusting 21 7.2
2020-Jan-20 22:30 271 11 gusting 19 7.2
2020-Jan-20 22:15 267 9 gusting 19 7.2
2020-Jan-20 22:01 282 11 gusting 17 7.2
2020-Jan-20 21:45 271 12 gusting 19 6.7
2020-Jan-20 21:30 281 10 gusting 19 6.7
2020-Jan-20 21:15 259 8 gusting 17 6.7
2020-Jan-20 21:00 290 8 gusting 13 6.7
2020-Jan-20 20:45 254 6 gusting 18 6.7
2020-Jan-20 20:30 260 7 gusting 13 6.7
2020-Jan-20 20:15 262 6 gusting 13 6.1
2020-Jan-20 20:00 238 5 gusting 8 6.1
2020-Jan-20 19:45 256 5 gusting 12 6.1
2020-Jan-20 19:30 276 6 gusting 9 6.1
2020-Jan-20 19:17 264 6 gusting 12 6.1
2020-Jan-20 19:02 253 7 gusting 13 6.1
2020-Jan-20 18:47 250 10 gusting 16 6.1
2020-Jan-20 18:34 262 8 gusting 19 5.6
2020-Jan-20 18:17 255 7 gusting 18 6.1
2020-Jan-20 18:04 264 10 gusting 15 5.6
2020-Jan-20 17:49 252 7 gusting 14 5.6
2020-Jan-20 17:32 262 8 gusting 13 5.6
2020-Jan-20 17:16 272 9 gusting 16 5.6
2020-Jan-20 17:01 273 9 gusting 14 5.6
2020-Jan-20 16:46 249 8 gusting 14 5.6
2020-Jan-20 16:32 259 6 gusting 13 5.6
2020-Jan-20 16:16 264 6 gusting 11 5.0
2020-Jan-20 16:03 266 6 5.6
2020-Jan-20 15:46 258 8 gusting 13 5.6
2020-Jan-20 15:32 280 7 gusting 14 5.6
2020-Jan-20 15:16 259 7 gusting 13 5.6
2020-Jan-20 15:01 263 6 gusting 12 5.6
2020-Jan-20 14:46 231 5 gusting 11 5.6
2020-Jan-20 14:31 259 6 gusting 12 5.6
2020-Jan-20 14:16 266 7 gusting 14 6.1
2020-Jan-20 14:02 242 8 gusting 14 6.1
2020-Jan-20 13:46 257 7 gusting 13 6.1
2020-Jan-20 13:32 271 9 gusting 16 6.1
2020-Jan-20 13:16 276 6 gusting 13 6.1
2020-Jan-20 13:00 255 8 gusting 15 6.1
2020-Jan-20 12:45 271 7 gusting 14 5.6
2020-Jan-20 12:30 272 8 gusting 16 5.6
2020-Jan-20 12:16 266 8 gusting 15 6.1
2020-Jan-20 12:00 259 8 gusting 18 5.6
2020-Jan-20 11:47 283 8 gusting 14 6.1
2020-Jan-20 11:31 269 8 gusting 18 5.6
2020-Jan-20 11:15 269 6 gusting 13 5.0
2020-Jan-20 11:01 257 8 gusting 15 5.0
2020-Jan-20 10:45 270 8 gusting 13 5.0
2020-Jan-20 10:30 255 7 gusting 15 5.0
2020-Jan-20 10:15 271 8 gusting 15 4.4
2020-Jan-20 10:00 264 6 gusting 11 3.9
2020-Jan-20 09:45 256 7 gusting 11 3.3
2020-Jan-20 09:30 221 6 gusting 11 3.3
2020-Jan-20 09:19 229 6 gusting 10 2.8
2020-Jan-20 09:03 234 5 gusting 9 2.8
2020-Jan-20 08:46 243 4 gusting 10 2.8
2020-Jan-20 08:32 219 5 gusting 9 2.2
2020-Jan-20 08:16 245 5 gusting 8 2.2
2020-Jan-20 08:02 230 5 gusting 8 2.2
2020-Jan-20 07:47 243 6 gusting 11 2.2
2020-Jan-20 07:32 246 6 gusting 10 2.2
2020-Jan-20 07:17 252 6 gusting 8 1.7
2020-Jan-20 07:01 230 5 gusting 8 1.7
2020-Jan-20 06:46 232 6 gusting 10 1.7
2020-Jan-20 06:31 254 6 gusting 9 1.1
2020-Jan-20 06:16 243 3 gusting 6 1.1
2020-Jan-20 06:01 248 4 gusting 9 1.1
2020-Jan-20 05:46 229 3 gusting 6 0.6
2020-Jan-20 05:31 263 4 gusting 7 0.6
2020-Jan-20 05:16 235 3 gusting 6 -0.0
2020-Jan-20 05:00 250 3 gusting 8 -0.0
2020-Jan-20 04:46 233 4 gusting 6 -0.0
2020-Jan-20 04:30 235 2 gusting 6 -0.0
2020-Jan-20 04:15 242 3 gusting 6 -0.0
2020-Jan-20 04:00 203 2 gusting 6 -0.0
2020-Jan-20 03:45 225 3 gusting 6 -0.0
2020-Jan-20 03:30 247 2 gusting 6 -0.6
2020-Jan-20 03:16 255 2 gusting 6 -0.6
2020-Jan-20 03:00 234 2 gusting 6 -0.6
2020-Jan-20 02:45 235 4 gusting 7 -0.6
2020-Jan-20 02:30 224 2 gusting 5 -1.1
2020-Jan-20 02:17 236 2 gusting 3 -1.1
2020-Jan-20 02:02 226 1 gusting 6 -0.6
2020-Jan-20 01:46 254 3 gusting 6 -0.6
2020-Jan-20 01:32 239 2 gusting 4 -0.6
2020-Jan-20 01:16 236 2 gusting 4 -1.1
2020-Jan-20 01:02 243 2 gusting 5 -0.6
2020-Jan-20 00:46 248 3 gusting 6 -0.6
2020-Jan-20 00:31 228 2 gusting 7 -0.6
2020-Jan-20 00:16 231 1 gusting 6 -0.6
2020-Jan-20 00:02 231 2 gusting 4 -1.1
2020-Jan-19 23:46 238 0 gusting 2 -1.1
2020-Jan-19 23:31 238 0 gusting 3 -0.6
2020-Jan-19 23:18 217 1 gusting 4 -0.6
2020-Jan-19 23:01 210 1 gusting 3 -0.6
2020-Jan-19 22:45 228 1 gusting 3 -0.6
2020-Jan-19 22:30 198 0 gusting 4 -0.6
2020-Jan-19 22:15 207 0 gusting 2 -1.1
2020-Jan-19 22:01 231 0 gusting 1 -1.1
2020-Jan-19 21:46 207 -1.1
2020-Jan-19 21:31 213 -1.1
2020-Jan-19 21:15 236 0 gusting 2 -1.1
2020-Jan-19 21:00 222 0 gusting 3 -0.6
2020-Jan-19 20:46 218 1 gusting 4 -0.0
2020-Jan-19 20:32 267 2 gusting 5 -0.0
2020-Jan-19 20:15 241 1 gusting 3 -0.0
2020-Jan-19 20:00 246 1 gusting 3 -0.0
2020-Jan-19 19:45 221 0 gusting 2 -0.0
2020-Jan-19 19:31 242 -0.0
2020-Jan-19 19:15 235 0 gusting 3 0.6
2020-Jan-19 19:01 221 0 gusting 2 -0.0
2020-Jan-19 18:45 211 -0.0
2020-Jan-19 18:30 192 0 gusting 3 0.6
2020-Jan-19 18:15 270 2 gusting 6 1.1
2020-Jan-19 18:00 279 1 gusting 5 1.1
2020-Jan-19 17:45 282 2 gusting 6 1.7
2020-Jan-19 17:30 267 2 gusting 6 1.7
2020-Jan-19 17:15 283 2 gusting 5 1.7
2020-Jan-19 17:00 282 4 gusting 6 1.7
2020-Jan-19 16:45 300 3 gusting 6 1.7
2020-Jan-19 16:33 281 2 gusting 5 1.7
2020-Jan-19 16:18 266 0 gusting 2 1.7
2020-Jan-19 16:01 288 1 gusting 5 1.7
2020-Jan-19 15:47 281 0 gusting 3 1.7
2020-Jan-19 15:31 266 0 gusting 3 1.7
2020-Jan-19 15:18 269 0 gusting 1 1.7
2020-Jan-19 15:01 243 1 gusting 3 2.2
2020-Jan-19 14:46 261 0 gusting 3 2.8
2020-Jan-19 14:31 271 1 gusting 4 3.3
2020-Jan-19 14:16 280 2 gusting 5 3.3
2020-Jan-19 14:01 276 1 gusting 4 3.9
2020-Jan-19 13:46 264 2 gusting 6 3.9
2020-Jan-19 13:32 269 5 gusting 8 3.9
2020-Jan-19 13:16 287 3 gusting 7 3.9
2020-Jan-19 13:02 261 2 gusting 6 3.9
2020-Jan-19 12:45 278 2 gusting 5 3.9
2020-Jan-19 12:31 267 1 gusting 5 3.9
2020-Jan-19 12:15 266 2 gusting 6 3.9
2020-Jan-19 12:00 288 5 gusting 10 3.9
2020-Jan-19 11:45 266 4 gusting 7 3.3
2020-Jan-19 11:30 297 4 gusting 8 3.3
2020-Jan-19 11:15 278 3 gusting 6 3.3
2020-Jan-19 11:00 268 2 gusting 7 3.3
2020-Jan-19 10:45 278 2 gusting 6 2.8
2020-Jan-19 10:30 286 2 gusting 7 2.8
2020-Jan-19 10:15 274 3 gusting 7 2.8
2020-Jan-19 10:03 272 3 gusting 7 2.2
2020-Jan-19 09:47 256 2 gusting 5 1.7
2020-Jan-19 09:32 230 1 gusting 4 1.7
2020-Jan-19 09:17 259 1 gusting 4 1.1
2020-Jan-19 09:02 240 2 gusting 4 1.1
2020-Jan-19 08:47 267 1 gusting 4 0.6
2020-Jan-19 08:33 253 0 gusting 4 0.6
2020-Jan-19 08:16 253 -0.0
2020-Jan-19 08:01 242 0 gusting 2 -0.6
2020-Jan-19 07:46 237 0 gusting 2 -0.0
2020-Jan-19 07:31 252 1 gusting 4 0.6
2020-Jan-19 07:18 249 1 gusting 4 0.6
2020-Jan-19 07:01 272 1 gusting 3 0.6
2020-Jan-19 06:45 259 2 gusting 5 0.6
2020-Jan-19 06:31 257 1 gusting 4 0.6
2020-Jan-19 06:15 259 3 gusting 6 1.1
2020-Jan-19 06:01 255 3 gusting 6 1.1